Regional Weather Roundup
Issued by NWS State College, PA

Home | Current Version | Previous Version | Text Only | Print | Product List | Glossary On
Versions: 1 2 3 4 5 6 7 8 9 10 11 12 13 14 15 16 17 18 19 20 21 22 23 24 25 26 27 28 29 30 31 32 33 34 35 36 37 38 39 40 41 42 43 44 45 46 47 48 49 50
000
ASUS41 KCTP 260910
RWRCTP

REGIONAL WEATHER ROUNDUP
NATIONAL WEATHER SERVICE STATE COLLEGE PA
500 AM EDT MON JUN 26 2017

Note: "fair" indicates few or no clouds below 12,000 feet with no
significant weather and/or obstructions to visibility.

* = STATION THAT DOES NOT REPORT PRECIPITATION /E.G. RAIN...SNOW...ETC/
    THUNDER OR FOG.

PAZ002>004-007>009-013>016-020>023-029>032-261000-
WESTERN PENNSYLVANIA

CITY           SKY/WX    TMP DP  RH WIND       PRES   REMARKS
ERIE           PTCLDY    56  49  77 S5        30.02S
MEADVILLE      CLOUDY    54  51  90 S5        30.04F
FRANKLIN*      CLEAR     48  43  81 N6        30.06R
NEW CASTLE     FAIR      48  47  96 CALM      30.06S
BEAVER COUNTY  NOT AVBL
BUTLER*        CLEAR     50  45  81 CALM      30.06S
PITTSBURGH INT PTCLDY    55  46  71 CALM      30.06S
PITTSBURGH     CLEAR     57  43  59 SW9       30.06S
INDIANA*       CLEAR     54  50  87 CALM      30.09S
LATROBE        CLEAR     52  50  93 SW6       30.08S
WASHINGTON CO* CLEAR     46  45  93 CALM      30.10S
$$

PAZ004>006-010>012-017>019-024>028-033>037-041-042-045-046-049>053-261000-
CENTRAL PENNSYLVANIA

CITY           SKY/WX    TMP DP  RH WIND       PRES   REMARKS
BRADFORD       CLOUDY    46  45  96 SE5       30.04F
DUBOIS         CLEAR     50  44  80 W3        30.05S
CLEARFIELD     CLEAR     47  46  97 N3        30.06S
JOHNSTOWN      CLEAR     54  44  69 SW7       30.08S
ALTOONA        CLEAR     53  49  86 SE3       30.08S
STATE COLLEGE  CLEAR     51  49  90 CALM      30.05S
WILLIAMSPORT   NOT AVBL
SELINSGROVE    NOT AVBL
FT INDIANTOWN  CLEAR     54  53  95 CALM      30.04R
CAPITAL CITY   NOT AVBL
HARRISBURG     CLEAR     61  53  75 NW6       30.04
YORK           NOT AVBL
$$

PAZ038>040-043-044-047-048-054-055-060>062-067>071-261000-
EASTERN PENNSYLVANIA

CITY           SKY/WX    TMP DP  RH WIND       PRES   REMARKS
SCRANTON       NOT AVBL
MOUNT POCONO   NOT AVBL
ALLENTOWN      NOT AVBL
QUAKERTOWN*    SUNNY     55  54  94 CALM      30.04S
READING        NOT AVBL
LANCASTER      NOT AVBL
COATESVILLE    SUNNY     59  50  72 CALM      30.06R
POTTSTOWN      NOT AVBL
BLUE BELL      CLEAR     55  54  94 CALM      30.05R
DOYLESTOWN     NOT AVBL
WILLOW GROVE   NOT AVBL
NORTH PHILA    NOT AVBL
PHILADELPHIA   NOT AVBL
$$




USA.gov is the U.S. government's official web portal to all federal, state and local government web resources and services.